Regional Weather Roundup
Issued by NWS

Home | Current Version | Previous Version | Text Only | Print | Product List | Glossary On
Versions: 1 2 3 4 5 6 7 8 9 10 11 12 13 14 15 16 17 18 19 20 21 22 23 24 25 26 27 28 29 30 31 32 33 34 35 36 37 38 39 40 41 42 43 44 45 46 47 48 49 50
037
ASUS43 KDMX 211906
RWRIA

WEATHER ROUNDUP FOR IOWA
NATIONAL WEATHER SERVICE DES MOINES IA
100 PM CST TUE FEB 21 2017

NOTE: "FAIR" INDICATES FEW OR NO CLOUDS BELOW 12,000 FEET WITH NO
SIGNIFICANT WEATHER AND/OR OBSTRUCTIONS TO VISIBILITY.

* - THESE STATIONS ARE NOT NWS STATIONS...THUS NOT UNDER NWS
QUALITY CONTROL.  THEY ALSO DO NOT REPORT WEATHER SUCH
AS PRECIPITATION OR FOG.

IAZ001>003-012>014-020>022-031>034-043>046-212000-
   NORTHWEST IOWA

CITY           SKY/WX    TMP DP  RH WIND       PRES   REMARKS
CARROLL *      SUNNY     61  46  59 SW18      29.90F
CHEROKEE *     SUNNY     63  40  43 SW18G28   29.83F
DENISON *      SUNNY     63  45  51 S16G22    29.88F
LE MARS *      SUNNY     64  43  45 S22G29    29.80F
ORANGE CITY *  SUNNY     63  45  51 S23G30    29.80F
SHELDON *      SUNNY     61  46  59 SW23G30   29.78F
SIOUX CITY     SUNNY     67  42  40 SW20G33   29.84F
SPENCER        SUNNY     62  44  51 S22G31    29.82F
STORM LAKE *   SUNNY     61  45  55 SW20G29   29.86F
$$

IAZ055>058-069>071-079>083-090>094-212000-
   SOUTHWEST IOWA

CITY           SKY/WX    TMP DP  RH WIND       PRES   REMARKS
ATLANTIC *     SUNNY     61  45  55 SW15      29.94F
CLARINDA *     SUNNY     63  45  51 SW10        N/A
COUNCIL BLFS * SUNNY     63  41  45 SW17      29.92F
CRESTON *      SUNNY     61  41  48 SW9       29.96F
HARLAN  *      SUNNY     61  45  55 SW15G21   29.95F
LAMONI         SUNNY     65  39  38 W7        29.94F
RED OAK *      SUNNY     63  45  51 SW12      29.95F
SHENANDOAH *   SUNNY     63  43  48 SW12      29.96F
$$

IAZ047>049-059>061-072>074-084-212000-
   CENTRAL IOWA

CITY           SKY/WX    TMP DP  RH WIND       PRES   REMARKS
AMES           SUNNY     59  48  67 SW8       29.92F
ANKENY *       SUNNY     63  37  39 S7        29.94F
BOONE *        SUNNY     59  45  58 SW13      29.91F
CHARITON *     SUNNY     64  41  42 S6        29.93F
DES MOINES     MOSUNNY   63  41  44 SW6       29.93F
GRINNELL*      SUNNY     58  44  59 W5        29.95F
KNOXVILLE *    SUNNY     63  39  42 S6        29.92F
MARSHALLTOWN   SUNNY     58  46  64 W9        29.92F
NEWTON *       SUNNY     59  46  63 SW8       29.92F
PELLA *        SUNNY     61  45  55 CALM      29.94F
PERRY *          N/A     60  46  59 SW12      29.93F
$$

IAZ004>006-015-016-023>025-035-036-212000-
   NORTH CENTRAL IOWA

CITY           SKY/WX    TMP DP  RH WIND       PRES   REMARKS
ALGONA *       SUNNY     61  46  59 SW22      29.86F
CLARION *      SUNNY     57  48  72 SW16      29.89F
ESTHERVILLE    SUNNY     60  45  57 SW21      29.81F
FORT DODGE *   SUNNY     59  46  63 SW14G22   29.90F
MASON CITY     SUNNY     57  45  64 S14       29.89F
FOREST CITY *    N/A     54  54 100 SW18      29.87F
WEBSTER CITY * SUNNY     59  45  58 SW15      29.88
IOWA FALLS *     N/A     57  48  71 S12       29.92F
$$

IAZ007>011-017>019-026>030-037>042-050>054-066-212000-
   NORTHEAST IOWA

CITY           SKY/WX    TMP DP  RH WIND       PRES   REMARKS
CEDAR RAPIDS   SUNNY     58  44  60 W5        29.92F
CHARLES CITY * SUNNY     54  50  87 S13G18    29.91F
CLINTON *      SUNNY     60  45  57 CALM      29.93F
DECORAH *      SUNNY     52  46  82 CALM      29.90F
DUBUQUE        SUNNY     57  43  59 SW5       29.93F
MONTICELLO *   SUNNY     59  43  55 SW5       29.93F
OELWEIN *      SUNNY     54  50  87 S8        29.92F
WATERLOO       SUNNY     57  43  59 SW8       29.92F
$$

IAZ064-065-067-068-078-212000-
   EAST CENTRAL IOWA

CITY           SKY/WX    TMP DP  RH WIND       PRES   REMARKS
DAVENPORT      SUNNY     61  44  53 VRB5      29.93F
IOWA CITY      SUNNY     62  43  49 MISG      29.95F
MUSCATINE *    SUNNY     63  45  51 VRB3      29.93F
QUAD CITIES    MOSUNNY   65  44  46 CALM      29.91F
$$

IAZ062-063-075>077-085>089-095>099-212000-
   SOUTHEAST IOWA

CITY           SKY/WX    TMP DP  RH WIND       PRES   REMARKS
BURLINGTON     SUNNY     63  51  65 VRB3      29.93F
FAIRFIELD *    SUNNY     63  41  45 VRB5      29.93F
KEOKUK *       SUNNY     63  54  72 VRB3      29.93F
OTTUMWA        SUNNY     64  41  42 SW5       29.93F
WASHINGTON *   SUNNY     63  43  48 CALM      29.94F
$$

ABBREVIATIONS USED IN REMARKS
   TC - TEMPERATURES IN CELSIUS
  WCI - WIND CHILL INDEX
   HX - HEAT INDEX
  VSB - VISIBILITY
$$





USA.gov is the U.S. government's official web portal to all federal, state and local government web resources and services.